Simultaneous Nadir Overpasses (SNOs) Predictions

Prediction of SNOs between NOAA-19 and NPP Satellite Orbit:

Table of predicted SNOs for the next 14.0 days since TLE Epoch: 8/14/2021
Index Date (NOAA-19) Time (NOAA-19) Lat,Lon (NOAA-19) SZA (NOAA-19 ) Date (NPP) Time (NPP) Lat,Lon (NPP) SZA (NPP ) Distance(km) Time Diff (sec)
1 08/16/2021 16:11:44 -78.01, 91.87 114.25 08/16/2021 16:12:57 -78.04, 91.84 114.25 2.93 73
2 08/16/2021 17:02:39 78.03,-100.73 65.77 08/16/2021 17:03:42 78.01,-100.71 65.73 2.49 63
3 08/16/2021 17:53:44 -78.02, 66.43 114.22 08/16/2021 17:54:27 -78.04, 66.46 114.23 2.12 43
4 08/16/2021 18:44:39 78.05,-126.16 65.80 08/16/2021 18:45:13 78.06,-126.31 65.81 3.62 34
5 08/16/2021 19:35:44 -78.03, 40.99 114.20 08/16/2021 19:35:57 -78.04, 41.07 114.20 2.21 13
6 08/16/2021 20:26:39 78.06,-151.60 65.82 08/16/2021 20:26:43 78.06,-151.70 65.83 2.29 4
7 08/16/2021 21:17:44 -78.04, 15.55 114.17 08/16/2021 21:17:27 -78.04, 15.68 114.18 3.11 17
8 08/16/2021 22:08:39 78.07,-177.04 65.85 08/16/2021 22:08:13 78.06,-177.09 65.86 1.27 26
9 08/16/2021 22:59:44 -78.05, -9.89 114.15 08/16/2021 22:58:58 -78.09, -9.92 114.10 4.02 46
10 08/16/2021 23:50:39 78.08, 157.52 65.87 08/16/2021 23:49:43 78.06, 157.52 65.88 1.48 56
11 08/17/2021 00:41:43 -78.10, -35.11 114.11 08/17/2021 00:40:28 -78.09, -35.30 114.07 4.53 75



Historial Predications of SNOs between NOAA-19 and NPP
